Regional Weather Roundup
Issued by NWS

Home | Current Version | Previous Version | Graphics & Text | Print | Product List | Glossary On
Versions: 1 2 3 4 5 6 7 8 9 10 11 12 13 14 15 16 17 18 19 20 21 22 23 24 25 26 27 28 29 30 31 32 33 34 35 36 37 38 39 40 41 42 43 44 45 46 47 48 49 50
000
ASUS43 KMKX 210700
RWRWI

WISCONSIN REGIONAL WEATHER ROUNDUP
NATIONAL WEATHER SERVICE MILWAUKEE/SULLIVAN WI
200 AM CDT THU AUG 21 2014

NOTE: "FAIR" INDICATES FEW OR NO CLOUDS BELOW 12,000 FEET WITH NO
SIGNIFICANT WEATHER AND/OR OBSTRUCTIONS TO VISIBILITY.

WIZ001-002-006>008-014>016-023>028-210800-
NORTHWEST WISCONSIN

CITY           SKY/WX    TMP DP  RH WIND       PRES   REMARKS
SUPERIOR ARPT  CLOUDY    62  62  99 NE5       29.93F
ASHLAND        FOG       58  57  97 NE3       29.95F VSB 1/4
HAYWARD        MOCLDY    57  57 100 CALM      29.93F FOG
SIREN          MOCLDY    64  61  92 E7        29.89F
RICE LAKE      PTCLDY    63  60  91 E6        29.92F
LADYSMITH      MOCLDY    61  59  94 E3        29.97S
EAU CLAIRE     NOT AVBL
MENOMONIE      MOSUNNY   66  63  90 E3        29.89F
NEW RICHMOND   PTCLDY    66  61  86 E6        29.88F
OSCEOLA        PTCLDY    67  64  89 E9        29.90F
$$

WIZ003>005-009-010-017-018-210800-
NORTH CENTRAL WISCONSIN

CITY           SKY/WX    TMP DP  RH WIND       PRES   REMARKS
WOODRUFF       CLEAR     60  56  87 CALM      29.98S
RHINELANDER    MOCLDY    60  59  96 CALM      29.99R FOG
EAGLE RIVER    CLOUDY    62  61  97 CALM      29.97F
LAND O LAKES   CLOUDY    61  61  99 CALM      29.99S
PHILLIPS       MOCLDY    55  55 100 CALM      29.96S
TOMAHAWK       FOG       52  51  97 CALM      29.98S VSB<1/4
MEDFORD        MOCLDY    61  60  97 SE5       29.97R
MERRILL        PTCLDY    54  54 100 CALM      29.97S FOG
$$

WIZ029-030-035-036-043>047-210800-
CENTRAL WISCONSIN

CITY           SKY/WX    TMP DP  RH WIND       PRES   REMARKS
WAUSAU         MOCLDY    60  59  96 E3        29.95S
MOSINEE        CLOUDY    61  61 100 CALM      29.98S
MARSHFIELD     MOCLDY    63  61  93 E5        29.96R
STEVENS POINT  MOCLDY    60  58  93 CALM      29.97S
WAUPACA        MOCLDY    64  63  95 CALM      29.97S
WAUTOMA        NOT AVBL
WISC RAPIDS    MOCLDY    65  62  90 SE5       29.96F
CAMP DOUGLAS   MOCLDY    64  64 100 SE3       29.94S
$$

WIZ011>013-019>022-031-037>040-048>050-210800-
NORTHEAST WISCONSIN

CITY           SKY/WX    TMP DP  RH WIND       PRES   REMARKS
ANTIGO         PTCLDY    56  56  99 CALM      29.99R FOG
STURGEON BAY   CLOUDY    64  61  88 S3        29.97S
GREEN BAY      PTCLDY    62  61  96 S3        29.97S
MANITOWOC      NOT AVBL
APPLETON       MOCLDY    63  63 100 CALM      29.97S
CLINTONVILLE   MOCLDY    59  59 100 CALM      29.96S
OSHKOSH        MOCLDY    64  63  96 S5        29.96S
$$

WIZ032>034-041-042-053>061-210800-
SOUTHWEST WISCONSIN

CITY           SKY/WX    TMP DP  RH WIND       PRES   REMARKS
LA CROSSE      MOCLDY    72  66  81 SE8       29.89F
SPARTA         CLOUDY    69  64  83 E3        29.93S
VIROQUA        PTSUNNY   68  68 100 E3        29.93S
BOSCOBEL       CLOUDY    70  66  87 CALM      29.92S
PRAIRIE DU CHI LGT RAIN  70  66  86 E3        29.91F
PLATTEVILLE    MOCLDY    69  67  92 SE6       29.95S
$$

WIZ056-057-062-063-064-067-068-210800-
SOUTH CENTRAL WISCONSIN

CITY           SKY/WX    TMP DP  RH WIND       PRES   REMARKS
BARABOO/DELLS  PTCLDY    66  63  89 E3        29.94S
LONE ROCK      NOT AVBL
WATERTOWN      PTCLDY    66  64  94 SE5       29.95S
MADISON        CLOUDY    68  65  90 NE5       29.94S
MIDDLETON      FAIR      68  68 100 CALM      29.95S
MONROE         MOCLDY    68  64  88 S9        29.95S
JANESVILLE     CLOUDY    72  68  88 CALM      29.94S
$$

WIZ051-052-058>065-066-070>072-210800-
SOUTHEAST WISCONSIN

CITY           SKY/WX    TMP DP  RH WIND       PRES   REMARKS
MILWAUKEE      PTCLDY    67  62  84 SE3       29.96F
WAUKESHA       PTCLDY    64  61  88 SE5       29.97F
MILWAUKEE/TIMM PTCLDY    68  61  77 CALM      29.97F
RACINE         PTCLDY    68  64  87 E6        29.97F
BURLINGTON     PTCLDY    64  63  97 CALM      29.96S
KENOSHA        PTCLDY    66  65  96 NE6       29.95F
FOND DU LAC    MOCLDY    65  61  87 S3        29.96F
SHEBOYGAN      PTCLDY    61  60  97 CALM      29.97F FOG
WEST BEND      MOCLDY    63  61  94 CALM      29.97F FOG
JUNEAU         MOCLDY    65  39  38 E7        29.96F
$$

LSZ147-162-210800-
LAKE SUPERIOR

STATION/POSITION TIME  TEMP    WIND        PRES    WAVE
                       AIR SEA DIR/SP/G            HT/PER
                 (UTC) (F)     (DEG/KT/KT) (MB)    (FT/S)
W MID LAKE BUOY  0550   59 58  110/  4/  4 1014.4F   0
DEVILS ISLAND    0600   61     100/  8/  8 1014.2F
PORT WING        0640   62      80/  2/  3 1013.9S
SAXON HARBOR     0600   58        CALM     1014.2S
$$

LMZ867-665-643>646-210800-
LAKE MICHIGAN

STATION/POSITION TIME  TEMP    WIND        PRES    WAVE
                       AIR SEA DIR/SP/G            HT/PER
                 (UTC) (F)     (DEG/KT/KT) (MB)    (FT/S)
N MID LAKE BUOY  0550   62 62  300/  2/  4 1014.1R   0
NORTHPORT PIER   0600   64     200/  3/  5 1014.6S
SISTER BAY       0611   64     150/  5/  8   N/A
ALGOMA LAKESHORE 0638             CALM       N/A
KEWAUNEE LAKESHO 0600   62     270/  2/  2 1013.9R
SHEBOYGAN LAKESH 0600   66 65  180/  3/  4 1015.1R
ATWATER BUOY     0600   69     130/  4/  6 1015.9S
MILWAUKEE LAKESH 0600   68      90/  4/  5   N/A
S MID LAKE BUOY  0550   68 68   60/  6/  8 1014.5R   0
KENOSHA   LAKESH 0600   70      60/  4/  5 1014.6R
$$

TC  - TEMPERATURE IN CELSIUS
VSB - VISIBILITY IN STATUTE MILES
WCI - WIND CHILL INDEX
HX  - HEAT INDEX




USA.gov is the U.S. government's official web portal to all federal, state and local government web resources and services.